DW1084 Weather Reports


Display with metric or nautical units.
time (UTC)temp
F
wind
direction
speed
MPH
gust
MPH
rain 1hr
in
rain 24hr
in
rain mn
in
humidity
%
barometer
mb
20260504081600 40 308 0.0 0.0 0.00 0.00 0.00 78 1013.8
20260504050008 48 249 0.0 0.0 0.00 0.00 0.00 53 1013.7
20260504044544 48 214 1.0 0.0 0.00 0.00 0.00 54 1013.7
20260504043020 47 180 1.0 0.0 0.00 0.00 0.00 57 1013.6
20260504041554 44 258 0.0 0.0 0.00 0.00 0.00 64 1013.4
20260504040034 42 259 1.0 0.0 0.00 0.00 0.00 75 1013.5
20260504034508 41 264 0.0 0.0 0.00 0.00 0.00 75 1013.4
20260504033051 41 264 0.0 0.0 0.00 0.00 0.00 77 1013.1
20260504031522 42 264 0.0 0.0 0.00 0.00 0.00 75 1013.2
20260504030059 43 264 0.0 0.0 0.00 0.00 0.00 72 1013.1
20260504030001 43 264 0.0 0.0 0.00 0.00 0.00 72 1013.0
20260504024535 43 264 0.0 0.0 0.00 0.00 0.00 71 1013.0
20260504023015 44 264 0.0 0.0 0.00 0.00 0.00 69 1013.0
20260504021549 44 265 0.0 0.0 0.00 0.00 0.00 69 1012.9
20260504020030 45 265 0.0 0.0 0.00 0.00 0.00 65 1013.0
20260504014510 46 265 0.0 0.0 0.00 0.00 0.00 63 1013.0
20260504013046 48 265 0.0 0.0 0.00 0.00 0.00 59 1012.8
20260504011524 49 265 0.0 0.0 0.00 0.00 0.00 55 1012.7
20260504010114 51 265 0.0 0.0 0.00 0.00 0.00 52 1012.4
20260504004537 53 265 0.0 0.0 0.00 0.00 0.00 46 1012.4
20260504003013 54 265 0.0 0.0 0.00 0.00 0.00 41 1012.2
20260504001600 55 265 0.0 0.0 0.00 0.00 0.00 40 1012.0
20260504000040 56 266 1.0 0.0 0.00 0.00 0.00 37 1011.9
20260503234507 57 262 1.0 0.0 0.00 0.00 0.00 36 1011.7
20260503233053 59 209 2.0 0.0 0.00 0.00 0.00 35 1011.8
20260503231521 59 281 4.0 0.0 0.00 0.00 0.00 35 1011.6
20260503230002 60 283 5.0 0.0 0.00 0.00 0.00 35 1011.5
20260503224539 60 264 4.0 0.0 0.00 0.00 0.00 34 1011.4
20260503223015 60 281 4.0 0.0 0.00 0.00 0.00 33 1011.3
20260503221557 60 284 4.0 0.0 0.00 0.00 0.00 34 1011.5
20260503220030 60 258 6.0 0.0 0.00 0.00 0.00 34 1011.5
20260503214521 60 266 10.0 0.0 0.00 0.00 0.00 32 1011.4
20260503213043 61 313 8.0 0.0 0.00 0.00 0.00 32 1011.5
20260503211523 60 302 8.0 0.0 0.00 0.00 0.00 33 1011.3
20260503210100 60 311 9.0 0.0 0.00 0.00 0.00 34 1011.4
20260503204550 61 329 8.0 0.0 0.00 0.00 0.00 33 1011.6
20260503203015 59 343 9.0 0.0 0.00 0.00 0.00 33 1011.6
20260503201551 60 256 10.0 0.0 0.00 0.00 0.00 35 1011.7
20260503200038 58 313 10.0 0.0 0.00 0.00 0.00 34 1011.8
20260503194507 58 306 12.0 0.0 0.00 0.00 0.00 34 1012.1
20260503193043 59 313 10.0 0.0 0.00 0.00 0.00 35 1012.1
20260503191519 58 262 9.0 0.0 0.00 0.00 0.00 35 1012.4
20260503184535 58 277 9.0 0.0 0.00 0.00 0.00 35 1012.6
20260503183012 57 292 14.0 0.0 0.00 0.00 0.00 37 1012.8
20260503181547 57 319 10.0 0.0 0.00 0.00 0.00 37 1012.7
20260503180027 56 317 10.0 0.0 0.00 0.00 0.00 39 1012.8
20260503174507 56 311 8.0 0.0 0.00 0.00 0.00 38 1012.9
20260503173117 55 290 12.0 0.0 0.00 0.00 0.00 36 1013.1
20260503171520 55 313 14.0 0.0 0.00 0.00 0.00 36 1013.1
20260503130107 47 303 10.0 0.0 0.00 0.00 0.00 59 1013.3